Dewpoint
27 27 27 27 27 27 27 26 26 27 28 28 27 27 28 30 31 31 31 34 34 35
26 25 26 26 26 27 27 23 24 26 27 27 26 27 27 27 28 28 28 29 32 32
25 25 25 25 25 25 25 24 23 24 25 25 25 25 25 26 26 27 27 26 27 30
26 27 26 25 25 24 24 24 22 23 24 25 22 23 23 23 23 23 24 25 25 26
27 27 26 25 25 25 22 22 21 22 23 24 21 21 21 21 21 21 21 22 24 25
27 27 25 24 23 22 22 21 20 20 21 23 22 19 19 19 20 20 21 21 22 24
23 27 28 25 18 18 20 19 18 18 19 21 23 20 19 19 19 19 19 20 22 24
23 29 28 22 17 17 17 16 14 14 15 18 22 22 19 18 18 19 18 19 20 22
25 25 26 25 24 23 16 13 14 14 16 15 23 21 21 19 17 17 19 17 18 20
25 24 24 24 24 23 21 20 19 17 19 19 20 21 20 20 17 18 19 18 18 18
25 24 23 22 22 24 23 21 19 18 17 18 18 21 21 19 18 18 19 20 19 18
24 24 23 22 22 22 25 23 20 19 19 17 18 21 21 20 18 19 18 19 19 18
25 24 23 23 23 23 25 23 21 19 17 19 17 20 21 20 19 18 19 18 18 18
25 24 22 21 22 22 22 21 21 19 16 14 17 17 20 21 21 16 18 19 17 18
Lifted_Index
15 15 15 16 16 17 18 18 18 17 17 17 17 17 17 16 15 14 13 12 11 10
16 16 16 17 17 17 18 19 19 18 17 16 17 17 17 16 16 15 14 12 11 11
16 16 17 17 17 18 19 20 20 19 18 18 17 17 17 17 16 15 14 13 12 12
16 17 17 17 18 18 19 20 20 20 20 20 19 18 17 17 16 15 14 14 13 12
16 16 17 17 18 19 19 20 20 21 21 21 21 21 20 18 16 14 14 13 13 12
15 16 16 17 18 19 20 20 21 21 21 21 21 21 21 20 18 16 15 14 13 13
15 15 16 17 18 19 20 21 21 21 21 21 21 21 20 20 19 18 18 17 15 15
15 16 16 17 18 19 20 21 21 21 21 20 20 20 19 19 18 18 18 18 18 18
15 16 17 17 18 19 20 20 21 20 20 19 19 19 19 18 17 17 17 17 18 19
16 16 17 17 18 18 19 19 19 19 19 18 18 18 18 18 17 17 17 17 18 19
16 16 17 17 17 18 18 18 18 18 18 18 18 18 18 18 17 17 17 18 19 19
16 16 16 17 17 17 17 17 17 17 18 17 18 18 18 18 17 17 17 18 19 20
16 16 16 16 17 16 16 16 17 17 17 18 18 18 19 18 17 16 17 18 19 20
17 16 16 17 17 16 16 16 16 17 17 18 18 18 19 18 18 17 16 17 18 19